Change the Weather History Date:

Sunday, September 22, 2013

  Actual Average Record
Temperature  
Mean Temperature 72 °F -  
Max Temperature 82 °F 83 °F 95 °F (2010)
Min Temperature 63 °F 64 °F 57 °F (1999)
Cooling Degree Days 7    
Growing Degree Days 22 (Base 50)    
Moisture  
Dew Point 63 °F    
Average Humidity 76    
Maximum Humidity 95    
Minimum Humidity 47    
Precipitation  
Precipitation 0.00 in - - ()
Sea Level Pressure  
Sea Level Pressure 29.82 in    
Wind  
Wind Speed 5 mph (NNE)    
Max Wind Speed 7 mph    
Max Gust Speed -    
Visibility 10 miles    
Events      
Averages and records for this station are not official NWS values.
T = Trace of Precipitation, MM = Missing Value Source: NWS Daily Summary

Daily Weather History Graph

Daily Weather History Graph

Search for Another Location

Airport or City:

Trip Planner

Search our weather history database for the weather conditions in past years. The results will help you decide how hot, cold, wet, or windy it might be!

Date:

Astronomy

Sep. 22, 2013 Rise Set
Actual Time 6:33 AM CDT 6:41 PM CDT
Civil Twilight 6:09 AM CDT 7:06 PM CDT
Nautical Twilight 5:40 AM CDT 7:34 PM CDT
Astronomical Twilight 5:11 AM CDT 8:03 PM CDT
Moon 8:45 PM CDT (9/22) 9:40 AM CDT (9/22)
Length of Visible Light 12h 56m
Length of Day
12h 07m
Waning Gibbous, 88% of the Moon is Illuminated
Sep 22
Waning Gibbous
Sep 26
Last Quarter
Oct 4
New
Oct 11
First Quarter
Oct 18
Full

Hourly Weather History & Observations

Time (CDT) Temp. Heat Index Dew Point Humidity Pressure Visibility Wind Dir Wind Speed Gust Speed Precip Events Conditions
12:58 AM 68.7 °F - 66.4 °F 92% 29.80 in 10.0 mi North 5.8 mph - N/A   Mostly Cloudy
1:58 AM 68.5 °F - 65.3 °F 89% 29.79 in 10.0 mi North 5.8 mph - N/A   Overcast
2:58 AM 67.8 °F - 63.7 °F 87% 29.79 in 10.0 mi North 5.8 mph - N/A   Overcast
3:58 AM 67.1 °F - 63.0 °F 87% 29.79 in 10.0 mi Variable 5.8 mph - N/A   Overcast
4:58 AM 66.6 °F - 62.2 °F 86% 29.80 in 10.0 mi North 4.6 mph - N/A   Overcast
5:58 AM 64.2 °F - 61.7 °F 91% 29.81 in 10.0 mi North 5.8 mph - N/A   Clear
6:58 AM 63.1 °F - 61.2 °F 93% 29.82 in 10.0 mi North 6.9 mph - N/A   Clear
7:58 AM 64.2 °F - 61.3 °F 90% 29.83 in 10.0 mi NNE 5.8 mph - N/A   Clear
8:58 AM 68.2 °F - 60.1 °F 75% 29.83 in 10.0 mi NE 6.9 mph - N/A   Clear
9:58 AM 70.9 °F - 60.4 °F 69% 29.84 in 10.0 mi Variable 4.6 mph - N/A   Clear
10:58 AM 73.4 °F - 61.5 °F 66% 29.85 in 10.0 mi East 2.3 mph - N/A   Clear
11:58 AM 76.3 °F - 61.9 °F 61% 29.84 in 10.0 mi ENE 3.5 mph - N/A   Clear
12:58 PM 79.0 °F - 62.2 °F 56% 29.84 in 10.0 mi West 3.5 mph - N/A   Clear
1:58 PM 81.0 °F 81.6 °F 60.1 °F 49% 29.82 in 10.0 mi Variable 2.3 mph - N/A   Clear
2:58 PM 81.7 °F 82.4 °F 61.2 °F 50% 29.81 in 10.0 mi Variable 1.2 mph - N/A   Clear
3:58 PM 81.1 °F 81.8 °F 60.3 °F 49% 29.79 in 10.0 mi NNE 3.5 mph - N/A   Clear
4:58 PM 81.7 °F 82.0 °F 59.9 °F 47% 29.79 in 10.0 mi Variable 4.6 mph - N/A   Clear
5:58 PM 80.1 °F 81.2 °F 62.1 °F 54% 29.80 in 10.0 mi ENE 2.3 mph - N/A   Clear
6:58 PM 74.7 °F - 67.8 °F 79% 29.81 in 10.0 mi South 2.3 mph - N/A   Scattered Clouds
7:58 PM 71.2 °F - 68.0 °F 89% 29.83 in 10.0 mi NW 2.3 mph - N/A   Clear
8:58 PM 68.9 °F - 66.7 °F 93% 29.84 in 10.0 mi North - - N/A   Clear
9:58 PM 68.2 °F - 66.7 °F 95% 29.85 in 10.0 mi Calm Calm - N/A   Clear
10:58 PM 67.6 °F - 63.9 °F 88% 29.85 in 10.0 mi NNE 3.5 mph - N/A   Clear
11:58 PM 67.6 °F - 64.2 °F 89% 29.85 in 10.0 mi ENE 4.6 mph - N/A   Clear